This demonstration page uses our WeatherBlox Daily Observations layout. Learn more.

Hourly Observations for December 30, 2016

Temp ( °F °C ) Dew Point ( °F °C ) Humidity (%) Winds ( mph kmh ) Pressure ( in mb ) Visibility ( mi km ) Precip ( " mm )
12:15 am 00:15 Clear 27 -2.6 9 -12.7 46 46 SSW 7 11 30.39 1029 10 16.0934 0 0
12:35 am 00:35 Clear 26 -3.5 9 -12.8 49 49 S 7 11 30.36 1028 10 16.0934 0 0
12:55 am 00:55 Clear 22 -5.3 9 -12.9 56 56 SSW 6 9 30.39 1029 10 16.0934 0 0
1:15 am 01:15 Clear 25 -4.1 10 -12.5 52 52 SW 7 11 30.33 1027 10 16.0934 0 0
1:35 am 01:35 Clear 25 -4.1 10 -12.3 53 53 SSW 8 13 30.33 1027 10 16.0934 0 0
1:55 am 01:55 Clear 26 -3.6 10 -12.4 51 51 SSW 7 11 30.3 1026 10 16.0934 0 0
2:15 am 02:15 Clear 24 -4.2 10 -12.1 55 55 SSW 7 11 30.3 1026 10 16.0934 0 0
2:35 am 02:35 Clear 26 -3.5 10 -12 52 52 SSW 6 9 30.27 1025 10 16.0934 0 0
2:55 am 02:55 Clear 26 -3.2 10 -12.5 49 49 SSW 9 15 30.27 1025 10 16.0934 0 0
3:15 am 03:15 Clear 26 -3.1 9 -12.6 48 48 S 8 13 30.27 1025 10 16.0934 0 0
3:35 am 03:35 Clear 28 -2.5 10 -12.5 47 47 SSW 13 20 30.27 1025 10 16.0934 0 0
3:55 am 03:55 Clear 30 -1.2 10 -12.5 42 42 SSW 10 17 30.21 1023 10 16.0934 0 0
4:15 am 04:15 Clear 31 -0.8 9 -13 39 39 SSW 10 17 30.21 1023 10 16.0934 0 0
4:35 am 04:35 Clear 30 -1.2 9 -12.9 41 41 SSW 12 19 30.18 1022 10 16.0934 0 0
4:55 am 04:55 Clear 28 -2 9 -12.6 45 45 SSW 10 17 30.18 1022 10 16.0934 0 0
5:15 am 05:15 Clear 27 -2.6 10 -12.3 48 48 SSW 8 13 30.15 1021 10 16.0934 0 0
5:35 am 05:35 Clear 27 -2.8 10 -12 50 50 SW 9 15 30.15 1021 10 16.0934 0 0
5:55 am 05:55 Clear 26 -3.3 11 -11.9 52 52 SW 9 15 30.18 1022 10 16.0934 0 0
6:15 am 06:15 Clear 25 -3.8 11 -11.8 54 54 SW 3 6 30.15 1021 10 16.0934 0 0
6:35 am 06:35 Clear 25 -4.1 11 -11.7 56 56 SW 5 7 30.15 1021 10 16.0934 0 0
6:55 am 06:55 Clear 24 -4.7 11 -11.6 59 59 SW 5 7 30.15 1021 10 16.0934 0 0
7:15 am 07:15 Clear 23 -5.1 11 -11.5 61 61 SW 6 9 30.12 1020 10 16.0934 0 0
7:35 am 07:35 Clear 22 -5.5 11 -11.5 63 63 SW 6 9 30.12 1020 10 16.0934 0 0
7:55 am 07:55 Clear 22 -5.7 11 -11.4 65 65 WSW 7 11 30.12 1020 10 16.0934 0 0
8:15 am 08:15 Sunny 23 -4.8 12 -11 62 62 SW 7 11 30.09 1019 10 16.0934 0 0
8:35 am 08:35 Sunny 24 -4.5 13 -10.5 63 63 WSW 5 7 30.09 1019 10 16.0934 0 0
8:55 am 08:55 Sunny 26 -3.1 14 -9.9 60 60 WSW 6 9 30.03 1017 10 16.0934 0 0
9:15 am 09:15 Sunny 29 -1.7 15 -9.3 57 57 SW 6 9 30.03 1017 10 16.0934 0 0
9:35 am 09:35 Sunny 31 -0.5 17 -8.3 56 56 SW 6 9 30 1016 10 16.0934 0 0
9:55 am 09:55 Sunny 32 0.2 18 -8 54 54 WSW 6 9 30 1016 10 16.0934 0 0
10:15 am 10:15 Sunny 36 2.1 19 -7.1 51 51 SW 6 9 29.94 1014 10 16.0934 0 0
10:35 am 10:35 Sunny 37 2.9 20 -6.7 50 50 WSW 6 9 29.94 1014 10 16.0934 0 0
10:55 am 10:55 Sunny 39 4.1 20 -6.7 46 46 WSW 7 11 29.94 1014 10 16.0934 0 0
11:15 am 11:15 Sunny 42 5.4 21 -6.2 43 43 SW 9 15 29.88 1012 10 16.0934 0 0
11:35 am 11:35 Sunny 44 6.5 21 -6 41 41 SW 7 11 29.85 1011 10 16.0934 0 0
11:55 am 11:55 Sunny 45 7.1 21 -6 39 39 SW 7 11 29.85 1011 10 16.0934 0 0
12:15 pm 12:15 Sunny 45 7.4 22 -5.5 40 40 SW 6 9 29.8 1009 10 16.0934 0 0
12:35 pm 12:35 Sunny 46 7.9 22 -5.6 38 38 SW 9 15 29.8 1009 10 16.0934 0 0
12:55 pm 12:55 Sunny 48 9.1 21 -5.9 34 34 SW 13 20 29.8 1009 10 16.0934 0 0
1:15 pm 13:15 Sunny 49 9.5 22 -5.7 34 34 SW 13 20 29.77 1008 10 16.0934 0 0
1:35 pm 13:35 Sunny 49 9.2 22 -5.5 35 35 SW 12 19 29.77 1008 10 16.0934 0 0
1:55 pm 13:55 Sunny 49 9.3 22 -5.3 36 36 SW 13 20 29.74 1007 10 16.0934 0 0
2:15 pm 14:15 Sunny 51 10.6 23 -4.9 34 34 SW 10 17 29.71 1006 10 16.0934 0 0
2:35 pm 14:35 Sunny 55 13 22 -5.4 28 28 SW 12 19 29.65 1004 10 16.0934 0 0
2:55 pm 14:55 Sunny 56 13.6 22 -5.7 26 26 SW 12 19 29.65 1004 10 16.0934 0 0
3:15 pm 15:15 Sunny 56 13.2 21 -5.9 26 26 SSW 7 11 29.62 1003 10 16.0934 0 0
3:35 pm 15:35 Sunny 56 13.2 22 -5.7 27 27 S 10 17 29.62 1003 10 16.0934 0 0
3:55 pm 15:55 Sunny 56 13.3 22 -5.5 27 27 SSW 9 15 29.62 1003 10 16.0934 0 0
4:15 pm 16:15 Sunny 54 12 23 -5.2 30 30 SSW 9 15 29.65 1004 10 16.0934 0 0
4:35 pm 16:35 Sunny 50 9.8 23 -5.2 35 35 SSW 6 9 29.65 1004 10 16.0934 0 0
4:55 pm 16:55 Sunny 46 8 23 -5.2 39 39 SSW 6 9 29.68 1005 10 16.0934 0 0
5:15 pm 17:15 Sunny 46 7.9 22 -5.5 38 38 Calm 29.68 1005 10 16.0934 0 0
5:35 pm 17:35 Clear 45 7.4 22 -5.6 40 40 S 7 11 29.68 1005 10 16.0934 0 0
5:55 pm 17:55 Clear 42 5.3 21 -6 44 44 S 9 15 29.68 1005 10 16.0934 0 0
6:15 pm 18:15 Clear 44 6.5 21 -6 41 41 S 8 13 29.65 1004 10 16.0934 0 0
6:35 pm 18:35 Clear 44 6.7 21 -6 40 40 S 9 15 29.65 1004 10 16.0934 0 0
6:55 pm 18:55 Clear 43 6 22 -5.5 44 44 S 9 15 29.62 1003 10 16.0934 0 0
7:15 pm 19:15 Clear 44 6.7 22 -5.6 41 41 S 13 20 29.62 1003 10 16.0934 0 0
7:35 pm 19:35 Clear 40 4.4 22 -5.3 50 50 NNW 8 13 29.68 1005 10 16.0934 0 0
7:55 pm 19:55 Clear 44 6.5 22 -5.8 41 41 NNW 3 6 29.65 1004 10 16.0934 0 0
8:15 pm 20:15 Clear 40 4.6 23 -5.1 50 50 NNW 7 11 29.71 1006 10 16.0934 0 0
8:35 pm 20:35 Clear 42 5.3 23 -5.1 47 47 N 10 17 29.71 1006 10 16.0934 0 0
8:55 pm 20:55 Clear 40 4.3 24 -4.7 52 52 NNE 16 26 29.71 1006 10 16.0934 0 0
9:15 pm 21:15 Clear 40 4.5 23 -5.2 50 50 N 14 22 29.71 1006 10 16.0934 0 0
9:35 pm 21:35 Clear 39 4.1 22 -5.5 50 50 N 17 28 29.71 1006 10 16.0934 0 0
9:55 pm 21:55 Clear 38 3.5 23 -5.2 53 53 NNE 16 26 29.71 1006 10 16.0934 0 0
10:15 pm 22:15 Clear 37 2.8 23 -5.1 56 56 N 14 22 29.77 1008 10 16.0934 0 0
10:35 pm 22:35 Clear 35 1.9 23 -5 61 61 N 12 19 29.77 1008 10 16.0934 0 0
10:55 pm 22:55 Clear 35 1.6 22 -5.3 61 61 N 14 22 29.77 1008 10 16.0934 0 0
11:15 pm 23:15 Clear 33 0.8 22 -5.5 63 63 N 12 19 29.8 1009 10 16.0934 0 0
11:35 pm 23:35 Clear 32 0.2 22 -5.5 66 66 N 13 20 29.8 1009 10 16.0934 0 0
11:55 pm 23:55 Clear 32 0 22 -5.6 66 66 N 12 19 29.83 1010 10 16.0934 0 0

Powered by AerisWeather